This demonstration page uses our WeatherBlox Daily Observations layout. Learn more.

Left ArrowRight Arrow

38.83388, -104.82136

Hourly Observations for May 27, 2018

Temp ( °F °C ) Dew Point ( °F °C ) Humidity (%) Winds ( mph kmh ) Pressure ( in mb ) Visibility ( mi km ) Precip ( " mm )
12:58 am 00:58 Mostly Cloudy 73 22.5 10 -12 9 9 S 15 24 29.31 993 10 16 0.00 0.00
1:58 am 01:58 Clear 65 18.5 12 -11.2 12 12 Calm 29.34 994 10 16 0.00 0.00
2:58 am 02:58 Clear 63 17 13 -10.4 14 14 Calm 29.36 994 10 16 0.00 0.00
3:58 am 03:58 Mostly Cloudy 63 17 16 -8.8 16 16 Calm 29.37 995 10 16 0.00 0.00
4:58 am 04:58 Mostly Cloudy 65 18.3 18 -7.9 16 16 Calm 29.37 995 10 16 0.00 0.00
5:58 am 05:58 Cloudy 63 17.4 21 -5.9 20 20 NW 3 6 29.39 995 10 16 0.00 0.00
6:58 am 06:58 Sunny 61 16.3 26 -3.2 26 26 SSW 3 6 29.41 996 10 16 0.00 0.00
7:58 am 07:58 Sunny 63 17.4 30 -1.3 28 28 Calm 29.41 996 10 16 0.00 0.00
8:58 am 08:58 Sunny 67 19.3 29 -1.7 24 24 NE 5 7 29.42 996 10 16 0.00 0.00
9:58 am 09:58 Sunny 71 21.8 28 -2.2 20 20 E 5 7 29.41 996 10 16 0.00 0.00
10:58 am 10:58 Sunny 76 24.5 26 -3.5 15 15 ESE 10 17 29.39 995 10 16 0.00 0.00
11:58 am 11:58 Sunny 78 25.4 26 -3.4 15 15 SE 13 20 29.36 994 10 16 0.00 0.00
12:54 pm 12:54 Sunny 81 27 25 -4 13 13 SSE 16 26 29.34 993 10 16 0.00 0.00
12:58 pm 12:58 Sunny 80 26.4 25 -4 13 13 SE 15 24 29.34 994 10 16 0.00 0.00
1:52 pm 13:52 Mostly Sunny 81 27 28 -2 15 15 ESE 16 26 29.33 993 10 16 0.00 0.00
2:58 pm 14:58 Mostly Cloudy 76 24.7 34 1.2 21 21 SSE 17 28 29.35 994 10 16 0.00 0.00
3:58 pm 15:58 Sunny 78 25.6 39 3.9 25 25 SE 13 20 29.34 994 10 16 0.00 0.00
3:59 pm 15:59 Sunny 77 25 39 4 26 26 SSE 14 22 29.33 993 10 16 0.00 0.00
4:58 pm 16:58 Partly Cloudy 77 24.8 31 -0.3 19 19 SSW 8 13 29.29 992 10 16 0.00 0.00
5:58 pm 17:58 Mostly Cloudy 77 24.8 21 -6.2 12 12 S 14 22 29.29 992 10 16 0.00 0.00
6:58 pm 18:58 Mostly Sunny 77 24.8 17 -8.4 10 10 S 8 13 29.30 992 10 16 0.00 0.00
7:58 pm 19:58 Sunny 77 24.9 2 -16.4 5 5 Calm 29.29 992 10 16 0.00 0.00
8:58 pm 20:58 Clear 73 22.7 4 -15.8 6 6 N 13 20 29.33 993 10 16 0.00 0.00
9:58 pm 21:58 Clear 64 17.9 35 1.9 34 34 NNW 17 28 29.38 995 10 16 0.00 0.00
10:58 pm 22:58 Clear 64 17.7 34 1 33 33 NNW 16 26 29.39 995 10 16 0.00 0.00
11:58 pm 23:58 Clear 61 16 37 2.6 41 41 NNW 16 26 29.39 995 10 16 0.00 0.00

Powered by AerisWeather